Home   Weather   Decatur   Past weeks

Flag for USA Past Weather in Decatur, Illinois, USA — Yesterday and Last 2 Weeks

Now
57 °F

Sunny.


Feels Like: 55 °F
Forecast: 52 / 74 °F
Wind: 9 mph from West

Location: Decatur Airport

Current Time: Sep 27, 2016 at 8:53:55 AM

Latest Report: Sep 27, 2016 at 7:54 AM


Visibility: 10 mi

Pressure: 29.96 "Hg

Humidity: 62%

Dew Point: 44 °F

Location of DecaturLocation

Past Weather in Decatur — Graph

°F

Decatur Temperature Yesterday

Maximum temperature yesterday: 74 °F (at 2:54 PM)
Minimum temperature yesterday: 56 °F (at 11:54 PM)
Average temperature yesterday: 65 °F

High & Low Weather Summary for the Past Weeks

 TemperatureHumidityPressure
High91 °F (Sep 21, 3:54 PM)97% (Sep 24, 3:54 AM)30.21 "Hg (Sep 24, 3:54 AM)
Low56 °F (Sep 26, 11:54 PM)24% (Sep 26, 5:54 PM)29.91 "Hg (Sep 16, 3:54 PM)
Average73 °F69%30.05 "Hg
* Reported Sep 12 7:54 AM — Sep 27 7:54 AM, Decatur, Weather by CustomWeather, © 2016

Note: Actual official high and low records may vary slightly from our data, if they occured in-between our weather recording intervals... More about our weather records

Advertising

Decatur Weather History for the Previous 24 Hours

Scroll right to see more
 ConditionsComfort  
Time TempWeatherWind HumidityBarometerVisibility
7:54 AM
Tue, Sep 27
57 °FSunny.9 mph62%29.96 "Hg10 mi
6:54 AM56 °FSunny.12 mph62%29.96 "Hg10 mi
5:54 AM56 °FClear.12 mph62%29.96 "Hg10 mi
4:54 AM56 °FClear.9 mph62%29.96 "Hg10 mi
3:54 AM57 °FClear.12 mph58%29.97 "Hg10 mi
2:54 AM57 °FClear.12 mph58%29.99 "Hg10 mi
1:54 AM57 °FClear.9 mph58%30.01 "Hg10 mi
12:54 AM58 °FClear.10 mph54%30.02 "Hg10 mi
11:54 PM
Mon, Sep 26
56 °FClear.8 mph55%30.03 "Hg10 mi
10:54 PM57 °FClear.9 mph53%30.04 "Hg10 mi
9:54 PM60 °FClear.8 mph46%30.04 "Hg10 mi
8:54 PM63 °FClear.8 mph40%30.04 "Hg10 mi
7:54 PM65 °FClear.6 mph34%30.03 "Hg10 mi
6:54 PM68 °FClear.9 mph28%30.03 "Hg10 mi
5:54 PM71 °FSunny.12 mph24%30.03 "Hg10 mi
4:54 PM73 °FSunny.13 mph25%30.03 "Hg10 mi
3:54 PM74 °FSunny.12 mph25%30.03 "Hg10 mi
2:54 PM74 °FSunny.14 mph25%30.04 "Hg10 mi
1:54 PM73 °FSunny.15 mph26%30.05 "Hg10 mi
12:54 PM72 °FSunny.20 mph28%30.09 "Hg10 mi
11:54 AM70 °FSunny.15 mph32%30.09 "Hg10 mi
10:54 AM68 °FSunny.18 mph35%30.11 "Hg10 mi
9:54 AM65 °FSunny.9 mph56%30.12 "Hg10 mi
8:54 AM60 °FSunny.13 mph72%30.11 "Hg10 mi
Weather by CustomWeather, © 2016

See weather overviewHow to use our weather pages